Location: Broek
(53.2737°N, 5.9967°E)
Time: 22:28:25
(UTC+00:00)

Cosmos 1892 - Pass Details

Date: 10 October 2024
Orbit: 430 x 440 km, 82.5° (Epoch: 09 November)

Event Time Altitude Azimuth Distance (km) Brightness Sun altitude
Rises 18:27:05 0° 352° (N) 2,506 6.4 -15.2°
Reaches altitude 10° 18:29:14 10° 358° (N) 1,628 5.4 -15.5°
Maximum altitude 18:32:42 51° 75° (ENE) 594 2.6 -16.0°
Enters shadow 18:33:59 32° 133° (SE) 815 3.2 -16.2°
